Lapse_Rate
5.3 5.0 4.5 4.2 4.0 3.9 3.9 3.9 3.8 4.2 4.4 4.6 4.6 4.5 4.7 4.8 5.5 5.5 5.6 6.2 6.3 6.2 6.9 7.7 7.8 7.8 7.5 7.7 7.9 7.5 7.2 7.6 7.6 7.4 7.7 7.9 7.8 7.6 7.8 7.7 6.6 6.9 7.3 7.5
4.9 4.5 4.5 4.2 4.3 4.3 4.3 4.2 4.4 5.2 5.7 5.6 6.6 6.3 5.9 5.3 5.4 5.0 5.2 5.7 6.4 6.8 6.9 7.2 7.8 7.8 7.8 8.0 8.0 7.7 7.6 7.6 7.4 7.7 7.6 7.4 7.5 7.5 7.7 7.6 7.9 7.3 7.3 7.2
4.7 4.6 4.5 4.7 4.7 4.8 4.8 5.0 5.1 6.4 6.8 7.2 7.1 7.1 6.9 7.0 6.0 5.7 5.7 5.8 6.0 6.4 6.9 7.4 7.3 7.9 7.8 8.1 8.3 8.1 8.3 8.0 7.6 7.1 6.8 7.3 7.0 7.2 7.4 7.6 7.5 7.2 7.1 7.4
4.7 4.6 4.8 5.1 5.2 5.5 5.8 6.1 6.3 6.6 6.7 7.3 7.5 7.9 7.6 7.5 6.8 6.2 6.3 6.1 6.2 6.4 6.7 7.6 7.3 7.8 7.8 8.3 8.4 8.4 8.1 7.6 7.5 7.3 7.6 8.1 8.1 7.8 7.7 7.6 7.7 7.7 7.6 7.7
4.9 4.8 5.3 5.6 6.0 6.3 6.9 6.8 6.5 6.7 7.0 7.3 6.7 7.4 7.7 7.8 7.6 7.0 6.9 6.6 6.4 6.6 6.8 7.6 8.2 8.2 8.2 8.1 8.1 8.5 8.6 7.8 7.7 7.7 7.6 7.6 7.9 8.3 8.1 7.8 7.7 7.7 7.7 7.7
5.0 5.3 5.9 6.3 6.5 7.1 7.5 7.2 7.0 6.9 7.0 7.1 7.2 7.3 7.6 7.8 7.9 7.6 7.1 7.5 7.1 7.1 7.1 7.9 7.4 7.4 7.7 7.8 7.8 8.1 8.3 8.1 7.9 7.5 7.9 7.8 7.6 7.4 7.9 7.8 7.7 7.8 7.6 7.9
5.6 6.2 6.6 6.8 7.3 7.6 7.6 7.4 7.4 7.5 6.9 7.1 7.2 7.0 6.9 7.2 7.1 7.1 7.4 7.6 7.3 7.4 8.3 8.0 7.1 7.3 7.6 7.7 7.8 7.9 8.0 8.0 7.9 8.1 8.0 7.5 7.2 7.6 7.7 7.9 8.0 7.9 7.9 8.1
6.1 6.6 6.8 7.4 7.7 8.0 7.8 7.7 7.4 7.5 6.9 6.9 7.1 6.9 6.7 6.8 6.4 7.0 7.3 7.7 7.3 7.7 8.0 7.3 7.0 6.9 7.4 7.6 7.8 7.9 7.7 7.9 8.1 7.7 7.5 8.0 7.6 7.8 8.1 8.0 8.1 8.2 8.1 8.3
6.5 6.9 7.3 7.7 7.9 7.9 7.8 7.8 7.6 7.1 6.8 7.0 7.1 7.0 6.9 6.7 6.7 6.6 7.1 7.8 7.4 7.5 7.8 7.1 7.3 7.3 7.3 7.3 7.8 8.1 8.0 7.8 8.0 7.7 7.7 7.7 7.8 8.0 8.3 8.6 8.2 8.4 8.5 8.5
6.9 7.4 7.6 7.9 7.9 7.8 7.7 7.9 7.6 7.0 6.5 7.5 7.1 6.8 6.9 7.2 7.2 6.9 7.0 7.5 7.4 7.2 7.3 7.6 7.3 7.3 7.6 7.8 8.0 8.0 8.0 7.9 7.8 7.8 7.9 7.8 7.5 8.1 8.4 7.9 7.7 8.3 8.3 8.4
7.3 7.6 7.6 7.7 7.7 7.9 7.7 7.9 7.1 6.9 7.1 7.1 6.8 6.8 7.0 6.9 7.0 7.0 7.0 7.5 7.4 7.2 7.5 7.3 7.7 7.8 7.6 7.7 7.7 8.0 8.0 7.9 8.0 8.1 7.9 7.5 7.7 7.9 7.8 8.1 8.3 8.2 8.4 8.4
7.4 7.7 7.7 7.8 7.9 7.9 7.8 7.6 7.1 7.1 7.2 7.0 6.7 7.0 7.0 6.8 6.9 7.0 7.0 6.9 7.3 7.4 7.2 7.5 7.6 8.0 8.0 7.9 7.8 7.9 7.8 8.0 8.1 8.0 8.0 7.8 7.9 7.9 8.2 8.1 8.3 8.2 8.2 8.1
7.4 7.8 7.9 7.8 7.8 7.8 7.6 7.4 7.1 7.1 7.0 7.0 6.6 7.0 6.9 7.0 6.8 6.8 7.0 6.6 6.7 6.8 7.1 7.1 7.4 7.5 7.8 7.8 7.8 7.7 7.8 7.8 7.7 7.9 7.5 7.3 7.4 7.8 8.0 7.5 7.8 8.1 7.7 7.6
7.4 7.8 7.8 7.7 7.7 7.5 7.2 7.3 7.4 7.3 6.9 6.9 7.0 7.0 6.8 7.0 7.0 6.9 7.0 6.4 6.4 6.4 6.8 7.1 7.0 7.4 7.6 7.7 7.8 7.9 7.7 7.6 7.5 7.4 7.4 7.0 7.1 7.1 7.2 7.2 7.2 7.3 7.2 7.3
7.3 7.6 7.8 7.6 7.6 7.5 7.3 7.3 7.2 7.0 6.9 6.8 6.8 6.9 7.0 6.9 6.9 6.9 6.7 6.8 6.7 6.4 6.8 7.1 7.0 6.8 7.5 7.8 7.8 7.8 7.7 7.6 7.3 7.4 7.4 7.2 6.7 6.5 6.5 6.1 5.9 6.1 5.9 6.2
7.2 7.6 7.9 7.6 7.6 7.5 7.3 7.3 7.0 7.1 7.0 6.6 6.7 6.9 6.9 7.1 6.7 6.6 6.8 6.8 6.8 6.5 6.3 6.7 6.6 6.8 6.9 7.1 7.3 7.2 7.3 7.4 7.2 7.1 6.7 6.7 6.4 6.2 6.1 6.4 6.5 6.4 6.5 6.6
7.5 7.5 7.6 7.6 7.4 7.4 7.3 7.2 7.1 7.0 6.7 6.5 6.7 6.8 6.9 6.9 6.8 7.0 7.0 6.8 7.1 6.8 6.7 6.1 5.8 6.2 6.4 6.5 6.5 6.5 7.0 7.3 6.9 6.5 6.5 6.4 6.5 6.5 6.5 6.3 5.9 6.1 6.1 6.1
7.6 7.6 7.5 7.5 7.5 7.3 7.2 7.1 7.0 7.0 6.7 6.6 7.0 7.0 7.0 6.8 6.5 6.4 6.1 6.1 6.4 6.5 6.3 5.8 6.0 5.8 5.7 5.8 5.8 6.2 6.4 6.6 6.5 6.6 6.5 6.5 6.5 6.5 6.4 6.3 6.2 6.1 6.0 6.0
7.5 7.1 7.3 7.3 7.4 7.3 7.1 6.8 7.0 6.8 6.8 6.9 6.9 6.8 7.1 7.0 6.8 6.6 6.3 6.2 5.9 5.6 5.7 5.4 5.5 5.4 5.4 5.6 5.5 5.6 6.0 6.3 6.4 6.4 6.4 6.3 6.2 6.3 6.3 6.2 6.1 6.1 6.0 6.0
7.2 7.2 7.2 7.4 7.3 7.0 7.0 6.8 6.8 6.7 6.6 6.9 7.1 7.1 7.4 6.9 6.8 6.2 5.9 5.6 5.8 5.9 6.2 6.2 5.8 5.3 5.3 5.3 5.5 5.4 5.9 6.1 6.2 6.2 6.2 6.2 6.2 6.1 6.0 5.9 5.8 5.7 5.7 5.7
7.1 7.1 7.1 7.3 7.1 6.9 7.0 6.8 6.5 6.4 6.7 7.1 7.3 7.1 7.3 7.0 6.5 6.3 6.9 6.8 6.8 6.6 6.2 6.3 5.6 5.3 5.4 5.5 5.7 5.7 6.0 6.2 6.1 6.1 6.0 5.9 5.7 5.5 5.3 5.2 5.2 5.2 5.1 5.0
7.0 7.0 7.2 7.3 7.0 7.0 6.9 6.5 6.6 6.6 6.9 7.1 7.3 7.3 7.2 7.1 7.0 7.1 7.1 7.1 6.8 6.6 6.6 6.5 5.7 5.6 5.7 5.7 5.7 5.9 5.9 6.1 6.1 5.9 5.8 5.6 5.4 5.2 5.1 5.0 4.9 5.0 5.0 5.0
7.1 7.1 7.5 7.2 7.0 6.8 6.4 6.2 6.1 6.6 7.2 7.4 7.5 7.5 7.3 7.2 7.4 7.4 7.3 7.2 6.9 6.8 6.9 6.5 6.2 6.0 6.0 6.1 6.2 6.1 6.1 6.0 6.0 6.0 5.9 5.6 5.3 5.1 5.0 5.0 5.1 5.1 5.1 5.2
7.5 7.7 7.4 7.2 7.1 6.8 6.9 6.6 7.3 7.8 7.6 7.5 7.6 7.5 7.4 7.6 7.8 7.8 7.5 7.4 7.5 7.7 7.4 7.0 6.9 6.8 6.6 6.4 6.2 6.1 6.0 5.9 5.8 5.8 5.8 5.8 5.8 5.9 5.9 5.7 5.5 5.3 5.3 5.4
7.8 7.6 7.2 6.9 7.0 6.9 7.1 6.7 7.0 7.6 7.7 7.6 7.5 7.5 7.8 8.1 8.2 8.0 8.1 8.0 8.0 7.9 7.9 7.6 7.3 7.2 7.1 7.0 7.0 6.9 6.8 6.6 6.6 6.6 6.6 6.5 6.5 6.5 6.4 6.2 6.2 6.2 6.1 5.9
7.7 7.3 7.2 7.2 7.3 7.6 7.3 7.1 7.1 7.4 7.5 7.4 7.4 7.7 8.0 8.4 8.2 8.2 8.0 8.0 7.9 8.0 8.0 7.8 7.6 7.5 7.4 7.4 7.5 7.5 7.5 7.5 7.5 7.3 7.2 7.1 7.0 6.9 6.9 6.7 6.5 6.3 6.0 5.8
7.6 7.5 7.5 7.5 7.4 7.3 7.2 7.0 7.2 7.3 7.2 7.4 7.8 8.0 8.2 8.3 8.4 8.2 8.1 8.2 8.1 8.0 8.0 7.9 7.8 7.7 7.8 7.9 7.9 7.8 7.9 7.9 7.8 7.7 7.6 7.5 7.4 7.3 7.2 7.0 6.8 6.5 6.4 6.2
Wind_Speed
20 20 20 19 18 16 3 2 4 1 4 6 5 15 11 14 22 10 14 7 7 11 6 19 10 15 13 11 16 19 11 5 5 14 2 8 20 14 9 6 7 1 2 8
20 19 20 21 18 14 2 3 4 4 4 7 13 11 24 21 21 14 18 14 12 6 5 7 8 8 5 8 16 17 9 6 7 6 4 3 8 10 12 5 3 11 9 6
21 21 21 21 20 18 4 3 3 4 5 11 17 17 21 20 15 21 24 13 12 13 17 13 5 5 4 6 8 8 19 6 20 17 18 6 5 6 7 14 7 10 13 11
23 23 23 24 23 21 6 4 5 5 6 8 16 19 15 15 13 18 16 21 20 14 9 7 5 4 2 0 4 5 11 14 10 18 6 11 16 15 14 14 14 12 12 12
24 24 25 24 24 24 7 3 3 4 10 15 13 15 16 23 22 17 20 21 20 19 20 6 3 6 3 1 3 4 2 6 8 8 12 12 13 17 19 18 9 11 9 9
25 26 26 26 26 18 4 4 5 5 12 12 9 9 19 20 17 15 23 19 23 26 22 14 10 7 6 6 5 4 7 7 5 13 8 10 9 17 16 10 8 13 12 8
26 26 28 27 24 18 6 3 3 5 9 11 16 19 18 13 16 24 20 24 21 13 17 11 9 9 8 6 7 4 5 6 1 4 10 9 11 5 18 17 10 10 5 11
25 26 29 30 25 24 9 4 4 3 7 10 17 17 16 18 12 18 25 21 6 7 13 3 5 4 3 5 2 7 4 4 4 5 7 2 2 5 9 13 11 12 10 15
26 27 27 34 27 23 10 7 7 4 5 13 19 18 19 13 6 5 15 15 4 4 4 7 11 9 6 7 4 3 5 1 2 3 5 10 3 2 2 4 10 12 12 19
26 27 28 28 26 15 9 3 12 6 3 8 10 12 6 5 3 4 3 9 10 6 3 10 11 14 5 9 9 5 4 2 6 3 3 2 1 2 2 11 4 17 16 16
27 26 28 28 29 19 9 5 13 10 3 7 10 12 13 9 7 5 3 2 7 6 7 9 8 6 11 10 7 7 8 7 4 3 6 9 1 2 5 1 5 11 13 9
27 24 26 27 29 26 15 5 6 8 4 4 4 7 9 5 2 2 3 5 2 5 5 5 5 3 5 13 10 2 7 5 6 2 2 2 3 3 2 1 12 7 12 12
25 24 26 25 31 28 15 5 4 4 3 3 5 8 4 5 7 4 3 3 3 5 3 3 2 8 4 8 10 6 2 4 4 5 4 3 3 5 4 7 11 13 15 15
23 24 25 24 30 28 15 5 4 3 2 3 4 1 4 1 6 12 11 10 6 7 3 2 2 3 1 3 4 3 2 6 7 5 7 7 8 6 9 13 14 14 12 11
21 24 25 25 25 18 9 6 8 7 2 2 2 2 1 5 7 9 5 8 3 2 2 3 2 0 1 1 2 3 1 6 5 4 9 8 5 4 9 13 12 13 15 11
22 23 25 25 25 13 3 2 2 11 3 2 2 1 3 4 9 6 5 3 1 2 1 3 2 3 2 2 3 4 2 2 5 6 7 10 11 6 4 11 10 10 11 11
21 25 25 25 25 3 2 2 2 17 5 2 1 1 2 4 5 2 2 1 1 2 2 3 1 3 2 2 3 2 6 12 12 13 13 9 7 6 8 12 11 11 11 9
22 24 27 21 17 11 3 3 4 11 2 1 1 1 0 1 2 3 3 2 2 5 3 2 2 2 2 4 4 4 7 10 10 8 7 9 12 11 9 9 9 9 8 7
23 24 17 2 1 2 2 6 8 2 1 1 2 3 2 3 0 2 3 3 3 2 2 1 1 2 4 4 3 5 4 4 7 9 10 11 12 11 10 8 7 7 6 6
20 7 1 2 3 5 7 3 2 1 1 1 2 1 2 1 0 1 1 2 1 2 3 2 4 4 2 3 1 2 3 8 10 12 6 7 7 9 9 6 4 4 6 6
2 2 2 1 6 2 0 2 2 2 2 2 2 2 4 1 2 2 1 2 1 3 1 2 2 3 2 4 7 5 4 4 3 5 3 7 7 9 7 6 5 4 5 5
4 3 1 1 1 2 2 1 1 3 2 2 3 2 2 2 1 2 2 2 1 3 2 3 3 2 1 2 6 6 6 7 4 2 1 0 2 2 5 4 5 6 5 3
2 2 3 2 1 3 4 3 2 2 4 4 3 3 1 1 3 3 3 5 3 1 3 2 1 2 2 1 3 5 5 6 5 5 4 4 2 2 4 6 5 6 7 8
3 4 4 4 3 4 4 4 2 2 4 7 4 3 2 2 3 2 4 2 2 2 2 2 3 5 4 3 1 2 3 2 2 1 1 2 3 5 5 7 6 6 9 10
3 3 4 5 1 1 0 1 2 1 6 4 4 3 2 2 3 2 3 2 1 1 3 3 4 7 6 5 3 3 2 1 1 1 2 4 3 5 7 7 7 8 8 8
2 2 1 1 1 0 1 2 2 2 4 3 3 3 3 2 3 2 1 4 3 3 2 3 6 7 5 4 4 3 2 2 2 3 3 4 4 4 5 5 5 6 8 10
2 1 0 1 1 2 2 2 2 2 1 2 2 3 2 2 2 2 2 3 2 2 3 4 6 7 5 4 4 3 2 2 3 3 4 4 4 3 4 6 8 6 8 7
Wind_Direction
300 299 296 293 295 302 330 199 263 130 126 222 242 224 232 245 257 256 255 296 269 261 266 233 230 218 214 180 163 197 184 141 173 208 160 219 206 195 185 189 191 211 229 219
317 307 297 289 285 281 159 230 257 183 133 248 236 249 247 249 259 256 237 258 235 267 256 244 210 222 231 173 177 185 176 188 185 204 218 191 196 196 193 152 133 203 217 215
312 306 302 297 290 271 230 215 255 231 210 240 242 257 249 245 254 245 256 256 281 283 270 261 271 225 227 193 209 159 169 159 202 208 217 144 181 169 178 192 205 214 230 222
310 307 304 299 294 275 244 198 225 219 250 242 233 247 254 261 245 236 217 247 246 251 267 244 229 210 202 254 168 147 170 212 204 212 181 194 206 200 182 200 210 207 222 213
305 305 303 295 289 281 237 209 203 219 253 261 267 220 230 238 252 245 225 229 231 231 234 243 123 8 12 285 213 153 197 205 169 188 198 186 208 209 196 202 203 230 219 221
304 298 300 299 296 265 226 197 220 246 258 275 279 258 236 239 226 241 238 227 228 241 247 254 286 273 279 262 295 197 165 147 152 214 189 192 249 210 195 197 193 200 205 208
303 298 304 310 293 273 203 173 200 228 255 246 258 270 260 262 260 242 244 233 233 241 257 266 245 252 235 242 261 218 157 141 129 141 142 196 243 235 205 211 200 189 164 173
304 302 305 308 291 276 224 188 207 213 261 262 272 274 273 276 248 256 244 251 263 240 229 259 197 214 222 222 236 201 191 141 120 156 199 292 162 182 161 182 215 196 166 145
302 306 308 307 294 272 227 213 212 223 240 244 252 267 258 265 248 289 242 242 199 352 208 198 228 237 200 209 176 101 120 113 167 159 176 217 197 160 184 150 218 167 160 158
300 307 305 308 315 277 229 219 201 241 252 260 264 271 300 267 244 247 221 229 226 175 213 202 203 226 246 202 187 176 125 121 184 164 213 273 254 288 259 177 218 166 167 160
298 306 309 308 309 300 240 238 211 225 216 245 251 259 269 266 244 247 315 171 198 176 204 202 192 198 207 221 196 177 179 168 183 143 198 237 132 155 200 75 78 134 138 140
294 305 304 310 305 303 271 241 196 213 217 271 285 264 266 202 207 235 274 290 277 172 201 220 175 157 178 199 207 124 206 206 172 232 193 5 325 301 11 248 134 119 119 125
296 303 303 308 303 303 275 223 209 225 211 266 245 242 200 236 216 207 257 269 331 258 166 173 150 189 151 190 195 132 130 174 107 146 23 8 32 62 77 112 106 117 127 126
295 302 304 305 303 308 301 207 188 189 206 234 238 334 234 246 266 271 225 238 262 280 236 143 114 143 228 188 136 138 151 137 138 92 118 96 44 80 98 95 95 94 85 101
298 301 304 303 301 297 342 252 206 194 228 292 269 287 247 304 308 313 257 232 195 304 16 63 103 26 145 66 115 94 247 162 166 182 150 122 123 131 110 110 111 113 114 104
298 300 301 299 298 295 244 284 208 175 157 233 236 286 308 308 325 336 338 12 84 127 88 86 49 38 25 100 85 7 296 73 62 129 118 104 125 127 118 110 117 119 107 107
299 297 295 298 294 262 234 298 320 183 157 233 127 261 270 315 306 302 336 358 65 52 61 51 73 15 323 85 97 113 45 74 87 100 103 97 131 138 121 117 113 101 96 94
297 296 299 294 301 281 238 256 254 145 181 169 227 164 203 282 341 346 6 12 20 33 83 36 22 13 358 72 41 44 60 80 65 52 58 116 118 119 116 120 126 119 121 125
297 308 316 304 234 196 221 210 136 52 109 188 192 203 153 186 222 312 354 11 57 337 66 51 244 14 49 119 352 53 46 81 113 83 96 121 133 138 142 142 149 147 151 149
304 304 354 250 218 233 119 75 114 174 211 181 194 157 149 172 154 83 131 74 89 55 18 311 47 54 27 29 149 117 94 122 123 105 105 120 138 158 171 179 159 169 171 167
171 213 237 252 148 87 35 120 158 135 232 192 155 171 145 243 145 152 357 114 43 96 72 115 85 86 41 40 74 44 41 173 153 57 109 175 170 180 186 198 193 181 183 203
246 196 145 57 82 51 87 92 127 217 206 165 151 153 136 128 154 109 14 102 44 86 355 66 82 129 168 52 65 65 65 79 97 50 48 66 222 196 205 205 208 214 222 241
244 223 173 181 63 77 175 167 206 217 176 177 167 108 66 95 49 62 46 56 54 95 41 75 115 160 190 77 54 64 70 72 78 80 77 93 99 141 198 216 223 221 232 237
214 190 156 210 184 230 195 203 182 163 141 140 116 84 73 63 57 59 72 49 126 81 92 134 182 191 164 151 137 105 93 101 93 61 274 264 254 256 246 241 238 229 243 245
212 166 197 202 204 91 142 148 116 99 137 123 100 78 90 56 93 36 115 87 95 202 159 169 178 173 163 163 166 165 149 160 281 276 277 279 274 260 268 255 248 234 245 251
227 207 122 78 137 147 142 139 137 172 141 97 65 99 93 83 118 101 143 125 158 173 183 163 143 157 170 168 178 187 193 223 273 282 271 272 256 249 264 289 259 236 230 244
190 149 57 183 182 143 146 151 173 137 82 95 110 71 64 101 76 126 197 174 179 167 145 148 155 159 164 169 178 195 213 259 280 287 283 272 279 293 278 279 282 272 273 236